Date String (YYYY-MM-DD hh:mm:ss) UTC,Instrument flags,Ambient pressure (hPa),Sample flow (lpm),Bypass flow (lpm),Sample temperature (°C),Ambient temperature (°C),ASC tube jacket temperature (°C),LED temperature (°C),Box temperature (°C),Sample RH (%),Span deviation,Mass concentration (μg/m³),Mass concentration (μg/m³),Mass concentration (μg/m³)
DateTimeUTC,F1_M11,P_M11,Q1_M11,Q2_M11,T1_M11,T2_M11,T3_M11,T4_M11,T5_M11,U1_M11,ZSPAN_M11,X2_M11,X0_M11,X1_M11
2022-05-27 05:00:00,,0826.9,4.99,0.00,29.7,28.8,00.0,38.6,31.6,11.3,0000.0,0002.41,0007.68,0001.59
2022-05-27 05:01:00,,0827.1,4.99,0.00,29.8,28.8,00.0,38.6,31.7,11.4,0000.0,0002.44,0006.40,0001.59
2022-05-27 05:02:00,,0826.8,5.01,0.00,29.8,28.8,00.0,38.6,31.7,11.4,0000.0,0002.43,0005.23,0001.58
2022-05-27 05:03:00,,0826.8,5.01,0.00,29.8,28.8,00.0,38.6,31.7,11.6,0000.0,0002.46,0005.50,0001.59
2022-05-27 05:04:00,,0826.8,4.98,0.00,29.8,28.8,00.0,38.6,31.7,11.8,0000.0,0002.46,0005.71,0001.58
2022-05-27 05:05:00,,0826.7,5.00,0.00,29.8,28.8,00.0,38.6,31.7,11.7,0000.0,0002.49,0005.84,0001.58
2022-05-27 05:06:00,,0826.8,5.00,0.00,29.8,28.8,00.0,38.7,31.7,11.8,0000.0,0002.52,0005.23,0001.59
2022-05-27 05:07:00,,0826.8,5.00,0.00,29.9,28.9,00.0,38.7,31.7,11.8,0000.0,0002.52,0005.12,0001.58
2022-05-27 05:08:00,,0826.8,5.01,0.00,29.9,28.9,00.0,38.7,31.7,11.5,0000.0,0002.55,0005.24,0001.58
2022-05-27 05:09:00,,0826.8,5.00,0.00,29.9,28.9,00.0,38.7,31.8,11.7,0000.0,0002.50,0005.04,0001.58
2022-05-27 05:10:00,,0826.8,4.99,0.00,29.9,28.9,00.0,38.7,31.8,11.6,0000.0,0002.48,0004.93,0001.58
2022-05-27 05:11:00,,0826.8,5.00,0.00,29.9,28.9,00.0,38.7,31.8,11.7,0000.0,0002.46,0004.95,0001.58
2022-05-27 05:12:00,,0826.7,5.00,0.00,29.9,28.4,00.0,38.7,31.7,11.7,0000.0,0002.45,0004.97,0001.60
2022-05-27 05:13:00,,0826.7,4.98,0.00,29.8,27.5,00.0,38.6,31.4,11.5,0000.0,0002.44,0004.97,0001.62
2022-05-27 05:14:00,,0826.7,4.99,0.00,29.7,27.2,00.0,38.6,31.3,11.7,0000.0,0002.43,0004.80,0001.61
2022-05-27 05:15:00,,0826.7,5.01,0.00,29.6,27.2,00.0,38.6,31.2,11.7,0000.0,0002.42,0004.97,0001.62
2022-05-27 05:16:00,,0826.7,5.00,0.00,29.6,27.3,00.0,38.5,31.2,11.9,0000.0,0002.43,0004.87,0001.63
2022-05-27 05:17:00,,0826.7,4.98,0.00,29.5,27.4,00.0,38.5,31.2,11.8,0000.0,0002.41,0004.77,0001.63
2022-05-27 05:18:00,,0826.7,5.00,0.00,29.5,27.6,00.0,38.5,31.2,11.9,0000.0,0002.50,0004.98,0001.65
2022-05-27 05:19:00,,0826.7,4.99,0.00,29.5,27.7,00.0,38.5,31.2,11.7,0000.0,0002.52,0004.91,0001.66
2022-05-27 05:20:00,,0826.6,5.01,0.00,29.5,27.8,00.0,38.5,31.3,11.7,0000.0,0002.56,0005.01,0001.68
2022-05-27 05:21:00,,0826.6,5.00,0.00,29.5,27.9,00.0,38.5,31.3,11.7,0000.0,0002.54,0004.97,0001.69
2022-05-27 05:22:00,,0826.6,4.99,0.00,29.5,28.0,00.0,38.5,31.3,11.6,0000.0,0002.53,0004.91,0001.70
2022-05-27 05:23:00,,0826.6,5.00,0.00,29.5,28.1,00.0,38.4,31.3,11.6,0000.0,0002.56,0005.98,0001.70
2022-05-27 05:24:00,,0826.6,5.00,0.00,29.5,28.2,00.0,38.4,31.3,11.6,0000.0,0002.64,0006.54,0001.71
2022-05-27 05:25:00,,0826.7,4.99,0.00,29.5,28.3,00.0,38.4,31.4,11.7,0000.0,0002.65,0006.51,0001.72
2022-05-27 05:26:00,,0826.6,5.00,0.00,29.5,28.3,00.0,38.4,31.4,11.7,0000.0,0002.68,0006.17,0001.72
2022-05-27 05:27:00,,0826.6,4.99,0.00,29.5,28.4,00.0,38.4,31.4,11.6,0000.0,0002.69,0006.18,0001.73
2022-05-27 05:28:00,,0826.6,5.00,0.00,29.6,28.4,00.0,38.5,31.4,11.5,0000.0,0002.72,0006.21,0001.75
2022-05-27 05:29:00,,0826.6,5.01,0.00,29.6,28.4,00.0,38.5,31.4,11.5,0000.0,0002.66,0006.61,0001.74
2022-05-27 05:30:00,,0826.6,5.00,0.00,29.6,28.5,00.0,38.5,31.4,11.6,0000.0,0002.64,0007.45,0001.74
2022-05-27 05:31:00,,0826.6,4.99,0.00,29.6,28.5,00.0,38.5,31.4,11.6,0000.0,0002.64,0007.41,0001.75
2022-05-27 05:32:00,,0826.6,5.00,0.00,29.6,28.5,00.0,38.5,31.5,11.5,0000.0,0002.68,0007.44,0001.74
2022-05-27 05:33:00,,0826.5,5.01,0.00,29.6,28.5,00.0,38.5,31.5,11.5,0000.0,0002.69,0007.43,0001.73
2022-05-27 05:34:00,,0826.5,4.99,0.00,29.6,28.6,00.0,38.5,31.5,11.6,0000.0,0002.68,0007.51,0001.73
2022-05-27 05:35:00,,0826.5,4.99,0.00,29.7,28.6,00.0,38.5,31.5,11.6,0000.0,0002.66,0007.36,0001.71
2022-05-27 05:36:00,,0826.5,5.00,0.00,29.7,28.6,00.0,38.5,31.5,11.7,0000.0,0002.63,0007.33,0001.71
2022-05-27 05:37:00,,0826.5,5.00,0.00,29.7,28.6,00.0,38.5,31.5,11.5,0000.0,0002.62,0007.32,0001.70
2022-05-27 05:38:00,,0826.5,5.00,0.00,29.7,28.6,00.0,38.5,31.6,11.5,0000.0,0002.61,0007.29,0001.70
2022-05-27 05:39:00,,0826.5,5.00,0.00,29.7,28.7,00.0,38.6,31.6,11.9,0000.0,0002.61,0007.31,0001.69
2022-05-27 05:40:00,,0826.5,4.99,0.00,29.7,28.7,00.0,38.6,31.6,11.6,0000.0,0002.66,0007.29,0001.69
2022-05-27 05:41:00,,0826.5,5.00,0.00,29.7,28.7,00.0,38.6,31.6,11.6,0000.0,0002.64,0006.93,0001.68
2022-05-27 05:42:00,,0826.5,4.99,0.00,29.8,28.7,00.0,38.6,31.6,11.6,0000.0,0002.59,0006.84,0001.67
2022-05-27 05:43:00,,0826.5,4.99,0.00,29.8,28.7,00.0,38.6,31.6,11.6,0000.0,0002.53,0006.84,0001.66
2022-05-27 05:44:00,,0826.5,5.00,0.00,29.8,28.7,00.0,38.6,31.7,11.6,0000.0,0002.49,0006.74,0001.65
2022-05-27 05:45:00,,0826.5,5.00,0.00,29.8,28.8,00.0,38.6,31.7,11.7,0000.0,0002.47,0006.54,0001.65
2022-05-27 05:46:00,,0826.5,4.99,0.00,29.8,28.8,00.0,38.6,31.7,11.6,0000.0,0002.38,0006.77,0001.64
2022-05-27 05:47:00,,0826.5,5.01,0.00,29.8,28.8,00.0,38.7,31.7,11.7,0000.0,0002.36,0006.72,0001.64
2022-05-27 05:48:00,,0826.5,4.99,0.00,29.8,28.8,00.0,38.7,31.7,11.7,0000.0,0002.41,0007.41,0001.64
2022-05-27 05:49:00,,0826.5,5.00,0.00,29.8,28.8,00.0,38.7,31.7,11.8,0000.0,0002.41,0007.77,0001.62
2022-05-27 05:50:00,,0826.5,5.00,0.00,29.8,28.8,00.0,38.7,31.7,12.0,0000.0,0002.39,0007.87,0001.61
2022-05-27 05:51:00,,0826.5,5.01,0.00,29.8,28.8,00.0,38.7,31.7,11.7,0000.0,0002.33,0007.51,0001.62
2022-05-27 05:52:00,,0826.5,4.99,0.00,29.9,28.8,00.0,38.7,31.7,11.7,0000.0,0002.30,0006.94,0001.61
2022-05-27 05:53:00,,0826.5,5.01,0.00,29.9,28.8,00.0,38.7,31.7,11.6,0000.0,0002.34,0007.08,0001.60
2022-05-27 05:54:00,,0826.5,4.99,0.00,29.9,28.8,00.0,38.7,31.7,11.5,0000.0,0002.34,0006.95,0001.61
2022-05-27 05:55:00,,0826.5,4.99,0.00,29.9,28.8,00.0,38.8,31.8,11.6,0000.0,0002.35,0006.94,0001.62
2022-05-27 05:56:00,,0826.5,5.00,0.00,29.9,28.9,00.0,38.8,31.8,11.6,0000.0,0002.36,0006.91,0001.63
2022-05-27 05:57:00,,0826.5,4.99,0.00,29.9,28.9,00.0,38.8,31.8,11.6,0000.0,0002.37,0006.80,0001.64
2022-05-27 05:58:00,,0826.4,5.00,0.00,29.9,28.9,00.0,38.8,31.7,11.5,0000.0,0002.37,0006.74,0001.63
2022-05-27 05:59:00,,0826.5,5.00,0.00,29.9,28.9,00.0,38.8,31.8,11.5,0000.0,0002.34,0006.01,0001.63
